Location: ?????
(55.9242°N, 38.1343°E)
Time: 13:21:09
(UTC+00:00)

Daily predictions for brighter satellites

Satellite Brightness Start Highest point End
(mag) Time Altitude Azimuth Time Altitude Azimuth Time Altitude Azimuth
Cosmos 1943 Rocket 2.9 16:32:35 10° NNW 16:37:45 38° NE 16:42:53 10° ESE
CSL-04 Debris 4.3 16:32:37 10° SE 16:38:00 61° ENE 16:43:25 10° NNW
CZ-4 R/B 1.2 16:35:46 10° SSE 16:39:34 85° ENE 16:43:27 10° NNW
Cosmos 468 Rocket 4.0 16:36:32 10° SSW 16:41:39 87° ESE 16:46:50 10° NNE
Lacrosse 4 Rocket 1.6 16:38:46 10° NW 16:43:09 83° SW 16:47:30 10° SE
ADEOS 4.1 16:40:00 10° S 16:45:11 64° WSW 16:50:24 10° NNW
KORONAS-FOTON 4.2 16:43:01 10° N 16:46:33 40° ENE 16:50:03 10° SE
Cosmos 841 Rocket 3.6 16:41:50 10° S 16:46:53 54° ESE 16:51:56 10° NE
PAYLOAD B 4.3 16:41:31 10° SSE 16:47:08 90° ESE 16:52:48 10° NNW
Cosmos 1356 Rocket 4.1 16:43:50 10° N 16:47:44 36° ENE 16:51:37 10° SE
Cosmos 1726 2.0 16:45:26 10° SSE 16:48:03 35° E 16:50:41 10° NNE
Cosmos 1536 4.4 16:45:52 10° ESE 16:48:14 16° E 16:50:37 10° NE
Tsikada Rocket 4.2 16:43:12 10° NNW 16:49:27 79° W 16:55:45 10° S
NOSS 2-1 (C) 3.2 16:46:43 10° NW 16:50:08 86° SW 16:54:37 10° SE
Cosmos 1328 Rocket 3.6 16:46:21 10° N 16:50:37 60° ENE 16:54:52 10° SSE
Cosmos 1125 Rocket 4.2 16:48:35 10° NNW 16:53:28 39° NE 16:58:18 10° ESE
Cosmos 2278 Rocket 2.4 16:47:53 10° NNW 16:53:31 59° NE 16:59:06 10° SE
SeaSat 1 3.7 16:49:47 10° NNE 16:54:29 46° NW 16:59:10 10° WSW
Terra 3.2 16:51:58 10° ESE 16:55:38 23° NE 16:59:18 10° N
Cosmos 1674 2.3 16:53:43 10° N 16:57:05 69° ENE 17:00:25 10° SSE
Meteor 1-4 Rocket 2.2 16:54:59 10° N 16:57:35 43° ENE 17:00:11 10° SE
Ariane Rocket 4.5 16:54:43 10° E 16:58:27 21° NE 17:02:11 10° N
Cosmos 540 Rocket 4.0 16:53:50 10° SW 16:58:54 65° WNW 17:04:00 10° NNE
Iridium 4 Rocket 3.0 16:55:21 10° N 16:59:42 89° WSW 17:03:51 10° S
CZ-4B R/B 3.2 16:55:14 10° SSE 17:00:44 88° ENE 17:06:11 10° NNW
Cosmos 1743 2.5 16:57:27 10° S 17:00:58 64° E 17:04:32 10° NNE
Cosmos 2016 Rocket 4.2 16:55:26 10° SSW 17:01:32 75° WNW 17:07:41 10° N
Cosmos 1763 Rocket 4.5 16:58:37 10° SW 17:03:32 50° NW 17:08:28 10° NNE
ERS-1 Rocket 3.9 16:59:44 11° ESE 17:04:00 31° ENE 17:08:23 10° N
TSX-5 3.6 17:01:43 10° NW 17:04:53 60° SW 17:07:58 10° SSE
CZ-4B R/B 3.6 17:03:28 10° S 17:07:11 53° W 17:11:07 10° NNW
ATLAS 2AS CENTAUR R/B 3.1 17:00:11 10° WSW 17:07:25 71° NNW 17:14:23 10° NE
Genesis I 2.8 17:06:11 10° SW 17:09:37 69° SE 17:13:08 10° NE
SPOT 5 3.2 17:06:06 10° SE 17:10:35 45° ENE 17:14:53 10° N
CARTOSAT-1 3.8 17:07:14 10° S 17:11:29 73° WSW 17:15:46 10° NNW
USA 290 2.4 17:08:25 10° NNW 17:11:40 59° ENE 17:14:16 15° SE
MOS 1-B 4.4 17:10:43 10° SSE 17:16:32 88° WSW 17:22:22 10° NNW
Cosmos 2360 Rocket 2.4 17:12:54 10° SW 17:18:34 75° NW 17:24:14 10° NNE
Okean 3 Rocket 4.2 17:15:24 10° SSE 17:19:30 36° E 17:23:36 10° NNE
Okean O Rocket 1.6 17:18:09 10° SSE 17:22:36 89° E 17:27:04 10° NNW
NOSS 2-1 (E) 3.9 17:22:39 10° WNW 17:26:08 53° SW 17:30:05 13° SSE
Resurs 01 Rocket 2.4 17:22:48 10° S 17:27:08 54° W 17:31:31 10° NNW
Cosmos 2237 Rocket 3.3 17:23:15 10° SSE 17:27:24 22° ESE 17:31:34 10° NE
Cosmos 2322 Rocket 2.9 17:21:51 10° SW 17:27:30 59° NW 17:33:10 10° NNE
ACS3 Solar Sail 1.9 17:21:26 10° SSE 17:27:50 82° ENE 17:34:17 10° NNW
Cosmos 1340 3.0 17:26:16 10° SSW 17:29:29 56° WNW 17:32:44 10° N
Helios 1A 3.6 17:26:52 10° N 17:30:54 57° WNW 17:34:52 10° SSW
USA 186 3.4 17:28:04 10° SSW 17:31:02 35° W 17:34:04 10° NNW
MOS 1 Rocket 3.8 17:27:39 15° SE 17:31:41 53° ENE 17:36:47 10° N
Cosmos 1814 Rocket 4.2 17:28:01 10° S 17:33:05 48° ESE 17:38:08 10° NE
Cosmos 2333 Rocket 2.7 17:29:31 10° SW 17:35:16 65° NW 17:41:02 10° NNE
SL-08 R/B 4.4 17:30:42 10° N 17:35:27 51° WNW 17:40:12 10° SW
NOSS 2-1 (D) 4.2 17:32:46 10° WNW 17:36:11 43° SW 17:39:50 14° SSE
Cosmos 1515 Rocket 3.4 17:32:14 10° N 17:36:35 79° ENE 17:40:29 13° SSE
Cosmos 2344 4.3 17:30:54 10° W 17:37:59 52° N 17:46:12 10° ENE
Okean-O 2.6 17:34:45 13° SSE 17:38:39 79° ENE 17:43:05 10° NNW
BlueWalker 3 3.2 17:36:01 10° W 17:39:18 29° SSW 17:41:17 18° SSE
Cosmos 2219 Rocket 2.2 17:33:45 10° SSW 17:39:27 88° WNW 17:45:11 10° NE
MetOp-B 4.1 17:36:23 13° SSE 17:41:09 74° ENE 17:46:31 10° NNW
CSL-04 Rocket 4.4 17:38:04 10° S 17:43:19 53° W 17:48:33 10° NNW
Sich 1 4.0 17:43:47 23° ESE 17:45:09 28° E 17:48:50 10° NNE
USA 245 3.5 17:45:40 23° NE 17:45:40 23° NE 17:47:23 10° N
USA 267 3.3 17:41:39 18° ESE 17:46:49 83° SSW 17:53:26 10° WNW
Cosmos 1805 4.3 17:46:41 23° E 17:46:51 23° E 17:49:48 10° NE
SL-16 R/B 3.8 17:42:37 10° WSW 17:47:51 36° NW 17:53:06 10° NNE
Cosmos 1842 4.0 17:46:13 10° NNW 17:49:43 48° W 17:53:12 10° S
Cosmos 2369 Rocket 3.2 17:49:18 10° NNW 17:54:33 35° NE 17:58:08 18° E
Meteor 1-13 Rocket 4.3 17:49:34 10° NNW 17:55:33 90° WSW 18:00:34 15° SSE
Cosmos 1980 4.3 17:50:42 10° S 17:55:46 35° ESE 18:00:52 10° NE
IRS-1C Rocket 4.1 17:52:38 20° SSE 17:56:21 72° ENE 18:01:38 10° NNW
DELTA 2 DEB (DPAF) 4.1 17:52:24 10° NNE 17:56:30 52° ESE 17:59:32 17° S
Cosmos 1766 Rocket 3.9 17:52:55 10° SSW 17:57:14 66° WNW 18:01:38 10° N
Cosmos 2298 Rocket 4.2 17:53:05 10° NNW 17:58:22 61° NE 18:01:17 26° SE
Cosmos 1500 Rocket 4.0 17:57:22 27° SE 17:59:11 40° E 18:03:17 10° NNE
USA 32 4.0 17:54:34 10° N 17:59:49 66° E 18:03:12 22° SSE
Cosmos 2322 3.6 17:54:22 10° SSW 18:00:01 80° ESE 18:05:43 10° NE
Cosmos 1428 Rocket 4.4 17:56:16 10° N 18:02:26 77° ENE 18:06:58 19° SSE
SWARM A 4.3 18:00:33 18° S 18:03:05 88° W 18:06:38 10° N
Cosmos 1743 Rocket 4.2 18:02:37 30° ESE 18:03:34 34° E 18:07:30 10° NNE
Cosmos 2150 Rocket 4.1 17:58:25 10° NNW 18:03:37 64° ENE 18:06:16 28° SE
Spot 2 Rocket 3.6 18:01:44 26° SE 18:04:28 60° ENE 18:09:27 10° N
In-Cosmos 22 4.4 18:00:51 10° NNW 18:06:37 74° W 18:11:29 14° S
NOSS 3-4 (A) 4.0 18:01:56 10° NW 18:08:13 62° NNE 18:13:10 21° ESE
NOSS 3-4 (C) 4.0 18:02:02 10° NW 18:08:18 62° NNE 18:13:16 21° ESE
Meteor 2-10 4.1 18:04:03 10° S 18:09:33 69° E 18:15:15 10° NNE
Cosmos 1315 Rocket 2.7 18:07:10 10° NNW 18:11:09 84° WSW 18:13:04 29° S
Cosmos 1707 4.1 18:08:11 10° NNW 18:11:26 34° W 18:14:39 10° SSW
USA 276 3.8 18:09:54 10° WSW 18:11:16 18° SW 18:11:16 18° SW
Cosmos 1570 Rocket 4.3 18:09:36 21° SSE 18:12:38 42° ESE 18:17:36 10° NE
CZ-4 R/B 4.2 18:12:48 10° WSW 18:14:41 13° W 18:16:35 10° WNW
Nadezhda 4 Rocket 4.2 18:09:02 10° NNW 18:15:14 71° W 18:21:01 12° S
Cosmos 2195 Rocket 4.4 18:09:07 10° N 18:15:17 83° E 18:19:24 22° SSE
Cosmos 1408 Rocket 3.4 18:13:30 22° S 18:16:15 71° E 18:20:40 10° NNE
Cosmos 1092 Rocket 4.0 18:11:01 10° N 18:17:21 74° ENE 18:21:13 25° SSE
Cosmos 1733 2.9 18:15:43 24° SSW 18:17:40 85° WNW 18:21:09 10° N
Meteor 1-23 Rocket 4.1 18:12:05 10° NNW 18:17:44 85° ENE 18:21:05 26° SSE
COSMOS 2428 2.7 18:13:19 10° SSW 18:19:02 87° SE 18:24:50 10° NE
Cosmos 1818 3.5 18:15:15 10° SW 18:20:44 89° SE 18:26:17 10° NE
Lacrosse 4 Rocket 4.0 18:18:04 10° WNW 18:20:44 16° WSW 18:23:23 10° SSW
Cosmos 1943 Rocket 2.4 18:16:22 10° NW 18:21:48 61° WSW 18:24:57 25° S
Cosmos 1975 3.5 18:22:48 33° E 18:22:48 33° E 18:26:03 10° NNE
USA 59 Rocket 1.8 18:19:57 10° WNW 18:23:02 23° SW 18:25:31 16° SSW
Cosmos 1536 3.0 18:20:01 11° SSW 18:23:40 65° WNW 18:27:30 10° N
SL-16 R/B 3.8 18:25:29 18° E 18:25:29 18° E 18:28:01 10° ENE
Cosmos 2026 Rocket 3.9 18:17:55 10° N 18:24:16 82° E 18:27:59 26° SSE
OPS 6432 4.0 18:23:48 10° NW 18:27:07 89° WSW 18:27:20 77° SE
Cosmos 1464 Rocket 4.2 18:23:03 10° SSW 18:29:21 75° WNW 18:35:46 10° N
Okean 1-7 4.1 18:28:24 10° N 18:32:12 29° ENE 18:32:39 28° ENE
Terra 1.9 18:30:28 30° S 18:32:47 75° WSW 18:37:31 10° NNW
SL-14 R/B 3.1 18:29:11 10° NNW 18:32:59 82° W 18:33:54 50° S
Meteor 1-11 Rocket 3.7 18:27:52 10° SSW 18:33:32 88° WNW 18:39:08 10° NNE
CRYOSAT 2 4.3 18:29:02 10° N 18:33:58 86° W 18:36:55 24° S
Cosmos 158 Rocket 3.9 18:33:42 39° SSE 18:35:04 52° ESE 18:39:49 10° NE
Cosmos 1634 Rocket 4.1 18:32:27 31° SSE 18:35:21 55° E 18:41:31 10° NNE
Cosmos 1125 Rocket 4.2 18:30:39 10° NW 18:35:39 49° WSW 18:38:31 24° S
Aureole 3 4.5 18:33:46 10° N 18:36:19 26° ENE 18:36:19 26° ENE
Ariane Rocket 2.9 18:34:38 36° SSE 18:36:46 88° ENE 18:41:53 10° NNW
Cosmos 2278 Rocket 3.4 18:32:15 10° NW 18:37:24 37° WSW 18:41:07 17° SSW
SPOT 3 Rocket 3.5 18:36:39 37° SSE 18:38:48 88° ENE 18:43:59 10° NNW
Cosmos 1805 Rocket 3.4 18:37:25 42° S 18:38:51 77° E 18:43:11 10° NNE
ERS-1 Rocket 3.4 18:39:39 24° S 18:42:30 57° WSW 18:47:29 10° NNW
Meteor 2-9 Rocket 4.1 18:38:56 16° SSW 18:43:19 85° WNW 18:48:47 10° NNE
Cosmos 1862 Rocket 3.6 18:41:56 10° N 18:46:19 62° ENE 18:46:57 54° ESE
Okean 3 3.4 18:43:50 10° N 18:47:57 59° ENE 18:48:15 57° E
Cosmos 2034 Rocket 4.1 18:41:53 10° SSW 18:48:03 78° WNW 18:54:16 10° N
SPOT 5 4.2 18:45:10 14° SSW 18:48:44 32° W 18:52:51 10° NNW
Celestis-02/Orion 38 4.5 18:45:38 10° NE 18:50:45 61° ESE 18:52:46 35° S
Cosmos 1707 Rocket 3.5 18:47:09 10° N 18:51:37 77° ENE 18:52:21 60° SE
USA 215 3.5 18:46:00 10° ENE 18:52:10 42° SE 18:58:18 10° SSW
Cosmos 1633 Rocket 4.0 18:53:17 34° ENE 18:53:17 34° ENE 18:56:40 10° NNE
Cosmos 2208 Rocket 3.9 18:55:25 40° S 18:57:15 67° ESE 19:02:34 10° NNE
NOSS 0 Rocket 3.9 18:51:22 10° SW 18:57:39 87° NW 19:03:56 10° NE
MetOp-A 3.8 18:58:35 53° E 18:59:08 57° ENE 19:03:48 10° N
ATLAS 2AS CENTAUR R/B 3.7 18:52:29 10° WNW 18:59:18 46° N 19:05:51 10° ENE
Okean O Rocket 4.3 18:56:49 10° SW 18:59:30 16° W 19:02:12 10° NW
Cosmos 1666 Rocket 3.9 19:00:46 47° ENE 19:00:46 47° ENE 19:04:36 10° NNE
Landsat 4 4.2 19:01:44 45° NNE 19:01:44 45° NNE 19:04:26 10° N
Meteor 1-21 4.4 18:57:16 10° NNW 19:02:57 68° W 19:05:22 35° S
Cosmos 1656 Rocket 3.6 18:57:44 10° NW 19:03:27 88° NE 19:05:00 51° SE
Cosmos 2360 Rocket 4.3 18:58:42 10° W 19:03:27 27° NNW 19:08:14 10° NNE
Cosmos 773 Rocket 4.2 19:06:05 49° ESE 19:06:05 49° ESE 19:11:08 10° NE
Cosmos 2228 Rocket 3.2 19:03:45 10° NNW 19:08:19 74° W 19:09:07 58° SSW
Aureole 3 Rocket 4.2 19:02:39 10° SSW 19:09:50 65° WNW 19:14:57 10° N
Cosmos 2297 3.6 19:04:52 10° NW 19:10:33 89° ENE 19:11:54 54° SE
Cosmos 2237 Rocket 2.1 19:05:08 10° SSW 19:10:46 90° WNW 19:16:27 10° NE
Cosmos 1441 Rocket 4.0 19:13:49 39° NNE 19:13:49 39° NNE 19:16:15 10° NNE
ACS3 Solar Sail 3.7 19:07:26 10° SW 19:12:39 26° W 19:17:53 10° NNW
ARIANE 5 R/B 3.2 19:19:16 43° ENE 19:19:16 43° ENE 19:23:19 10° N
Cosmos 2333 Rocket 4.4 19:15:52 10° W 19:20:38 26° NNW 19:25:23 10° NNE
NOSS 3-3 (C) 4.0 19:22:06 50° ESE 19:22:06 50° ESE 19:28:02 10° NE
Cosmos 1805 4.3 19:21:00 35° W 19:21:43 39° WNW 19:25:12 10° N
Sich 1 4.1 19:20:26 26° SW 19:22:23 43° WNW 19:26:31 10° N
CZ-4C R/B 4.0 19:19:20 10° N 19:22:59 50° WNW 19:23:38 44° WSW
Cosmos 2219 Rocket 4.1 19:19:10 10° W 19:24:08 30° NNW 19:29:07 10° NNE
Cosmos 2279 Rocket 3.9 19:22:18 48° S 19:24:10 78° E 19:30:25 10° NNE
USA 267 3.7 19:29:00 40° S 19:30:20 45° SW 19:36:35 10° WNW
NOSS 3-3 (A) 3.7 19:38:25 62° SSE 19:38:48 64° SE 19:45:22 10° NE
Cosmos 2369 Rocket 2.1 19:33:21 10° NW 19:39:06 74° WSW 19:39:53 63° S
Cosmos 1980 4.1 19:33:58 10° SW 19:39:36 62° NW 19:45:16 10° NNE
Okean 2 3.8 19:38:14 10° NNW 19:41:41 56° WNW 19:41:41 56° WNW
SL-08 ROCKET BODY 4.4 19:42:26 10° NNW 19:48:41 84° W 19:49:53 61° S
Cosmos 192 4.3 19:44:02 10° NNW 19:48:53 74° WSW 19:48:53 74° WSW
Cosmos 1766 4.3 19:52:59 41° NNW 19:52:59 41° NNW 19:55:40 10° N
SL-24 DEB 4.4 19:48:16 10° N 19:52:12 64° NNE 19:52:12 64° NNE
Cosmos 2344 4.0 19:46:08 10° WNW 19:53:39 65° NNE 20:00:25 21° ESE
Cosmos 783 Rocket 4.5 19:58:30 71° ENE 19:58:30 71° ENE 20:03:24 10° NNE
Cosmos 1975 4.3 19:57:50 29° W 19:58:17 30° WNW 20:01:46 10° N
ATLAS CENTAUR R/B 3.9 20:01:59 11° NE 20:01:59 11° NE 20:02:13 10° NE
NOSS 3-4 (A) 3.9 19:52:47 10° NW 19:59:17 60° SW 20:00:35 52° S
NOSS 3-4 (C) 3.9 19:52:53 10° NW 19:59:23 60° SW 20:00:40 52° S
Cosmos 1607 4.1 20:00:25 58° ESE 20:00:25 58° ESE 20:06:20 10° NE
COSMOS 2428 4.5 19:58:55 10° W 20:03:59 31° NNW 20:09:06 10° NNE
Cosmos 1943 Rocket 4.4 20:01:57 10° WNW 20:04:27 13° W 20:06:27 11° WSW
RESURS DK-1 4.4 20:02:46 10° NNW 20:05:57 21° NNE 20:06:43 20° NE
SL-16 R/B 2.0 20:07:18 81° SE 20:07:25 82° ESE 20:13:08 10° NE
ASTEX 1 3.4 20:09:35 73° NNE 20:09:35 73° NNE 20:14:09 10° N
Okean 1-7 4.0 20:05:31 10° NNW 20:09:11 42° WNW 20:09:11 42° WNW
Cosmos 2266 Rocket 4.2 20:03:38 10° NNW 20:09:46 64° W 20:10:56 54° SW
Meteor 2-5 Rocket 3.8 20:04:20 10° NNW 20:10:17 66° ENE 20:10:47 63° E
Terra 4.3 20:09:10 11° WSW 20:11:12 14° W 20:13:33 10° NW
Cosmos 2056 Rocket 4.0 20:09:47 10° NNW 20:14:51 48° NE 20:15:12 47° ENE
Cosmos 2263 4.4 20:09:48 10° NW 20:15:25 56° WSW 20:15:30 56° WSW
ALOS 2 3.2 20:25:26 53° NNE 20:25:26 53° NNE 20:28:57 10° NNW
Meteor 1-22 Rocket 4.5 20:30:03 57° E 20:30:03 57° E 20:35:11 10° NNE
Cosmos 1470 4.4 20:31:10 31° NNW 20:31:10 31° NNW 20:33:27 10° N
Cosmos 1655 Rocket 4.1 20:23:53 10° NNW 20:30:13 67° W 20:31:03 60° SW
Cosmos 1633 Rocket 4.3 20:30:16 35° WNW 20:30:22 35° WNW 20:34:27 10° N
Meteor 1-24 Rocket 3.7 20:26:17 10° NNW 20:32:22 89° ENE 20:32:38 83° SSE
H-2A R/B 3.4 20:34:25 46° N 20:34:25 46° N 20:37:29 10° NNW
Cosmos 1943 3.8 20:34:42 43° ENE 20:34:42 43° ENE 20:38:56 10° NE
Nadezhda 2 Rocket 4.4 20:28:47 10° N 20:35:11 74° ENE 20:35:46 69° ESE
Cosmos 1825 4.4 20:32:13 10° N 20:33:27 20° N 20:33:27 20° N
USA 215 3.1 20:29:09 10° ENE 20:35:44 81° SSE 20:42:19 10° WSW
Cosmos 1244 Rocket 4.3 20:37:06 10° N 20:43:19 86° ENE 20:43:41 80° SE
Cosmos 1553 Rocket 4.3 20:45:06 52° E 20:45:12 52° E 20:51:17 10° NNE
EO 1 Delta rocket 4.4 20:40:51 10° N 20:45:09 54° WNW 20:45:09 54° WNW
Cosmos 1538 Rocket 4.2 20:49:11 65° NE 20:49:11 65° NE 20:53:50 10° NNE
Cosmos 1697 Rocket 4.0 20:44:03 10° NNW 20:49:12 34° NE 20:51:35 25° E
Cosmos 1420 Rocket 4.1 20:44:12 10° NNW 20:48:48 71° NNW 20:48:48 71° NNW
ATLAS 2AS CENTAUR R/B 3.3 20:44:30 10° WNW 20:51:23 55° NNE 20:56:22 18° E
Meteor 2-10 Rocket 3.7 20:54:31 68° NE 20:54:31 68° NE 20:59:21 10° NNE
Cosmos 2237 Rocket 3.9 20:50:37 10° W 20:55:32 30° NNW 21:00:29 10° NNE
ARIANE 5 R/B 4.2 20:56:43 27° WNW 20:56:43 27° WNW 20:59:35 10° NNW
Cosmos 1656 3.9 20:54:09 10° NNW 20:59:51 65° NE 21:00:10 63° ENE
Cosmos 1025 Rocket 4.5 21:02:54 10° N 21:06:07 32° NE 21:06:07 32° NE
Cosmos 724 4.3 21:11:49 68° W 21:12:20 73° NW 21:18:11 10° NE
NOSS 3-3 (C) 4.3 21:09:29 30° W 21:12:34 63° NNW 21:19:35 10° NE
Cosmos 1680 Rocket 4.4 21:14:38 41° ENE 21:14:38 41° ENE 21:18:33 10° NE
Cosmos 1371 Rocket 4.4 21:10:12 10° NNW 21:14:26 58° NW 21:14:26 58° NW
Cosmos 2369 Rocket 4.1 21:18:35 10° WNW 21:21:39 17° W 21:21:39 17° W
Meteor 1-12 Rocket 4.2 21:26:29 80° NW 21:26:29 80° NW 21:31:58 10° NNE
Cosmos 1953 4.2 21:30:32 27° NNE 21:30:32 27° NNE 21:32:31 10° NNE
H-2A R/B 3.7 21:26:03 10° NNE 21:28:45 28° ENE 21:28:45 28° ENE
ATLAS CENTAUR R/B 3.1 21:36:42 28° N 21:36:42 28° N 21:39:41 10° NE
Cosmos 1975 Rocket 4.5 21:32:35 10° N 21:36:02 33° NE 21:36:02 33° NE
S3M 4.0 21:37:10 64° ESE 21:37:19 65° E 21:43:26 10° NNE
SL-19 R/B 4.3 21:37:09 10° NNE 21:42:36 77° E 21:42:36 77° E
RESURS DK-1 4.1 21:40:09 10° NW 21:42:13 29° NNW 21:42:13 29° NNW
Cosmos 1745 Rocket 3.9 21:38:05 10° NNW 21:44:20 74° W 21:44:30 73° WSW
Cosmos 1980 Rocket 3.3 21:41:59 10° NNW 21:47:16 40° NE 21:50:14 23° E
SL-16 R/B 3.7 21:49:08 20° W 21:52:09 32° NW 21:57:15 10° NNE
Cosmos 1452 Rocket 3.6 21:47:56 10° NNW 21:52:48 73° N 21:52:48 73° N
Cosmos 1455 4.5 21:55:40 21° N 21:55:40 21° N 21:56:54 10° N
Cosmos 2112 Rocket 4.2 21:56:51 70° NE 21:56:51 70° NE 22:01:37 10° NNE
Cosmos 1331 Rocket 4.1 21:52:01 10° NNW 21:56:50 73° N 21:56:50 73° N
CZ-3B R/B 3.4 21:39:13 10° WNW 21:57:46 70° SSW 21:58:53 60° SSE
CZ-2C R/B 3.7 21:59:29 32° E 22:00:49 37° ENE 22:05:33 10° N
IDEFIX/ARIANE 42P 4.4 21:57:41 10° NE 22:01:25 19° E 22:02:12 19° E
Cosmos 2360 4.2 21:56:08 10° NW 22:01:27 75° WNW 22:01:27 75° WNW
Cosmos 1603 3.7 22:04:06 70° WNW 22:04:16 71° NW 22:09:57 10° NNE
USA 281 3.9 22:01:01 18° ESE 22:05:45 50° NE 22:12:04 10° NNW
Cosmos 1417 Rocket 4.4 22:07:36 71° WSW 22:08:04 74° WNW 22:14:27 10° N
In-Cosmos 22 Rocket 4.1 22:02:30 10° NNW 22:08:00 84° WNW 22:08:00 84° WNW
Cosmos 2344 4.0 22:00:24 10° NW 22:08:16 60° SW 22:10:20 51° S
Cosmos 2315 Rocket 3.9 22:09:52 72° SE 22:10:20 76° E 22:16:33 10° NNE
Cosmos 1110 Rocket 4.3 22:05:50 10° NNW 22:10:07 60° NW 22:10:07 60° NW
Cosmos 883 Rocket 4.3 22:11:20 78° SSE 22:11:42 83° E 22:17:51 10° NNE
Cosmos 1733 Rocket 4.4 22:14:47 33° NW 22:14:47 33° NW 22:17:53 10° N
Meteor 1-16 Rocket 4.2 22:14:29 64° NW 22:14:29 64° NW 22:19:33 10° N
Cosmos 1943 4.0 22:16:28 40° WNW 22:17:39 45° NW 22:23:05 10° NNE
USA 215 3.2 22:12:17 10° E 22:18:51 82° N 22:25:26 10° W
Cosmos 1908 Rocket 4.2 22:22:57 54° N 22:22:57 54° N 22:26:28 10° N
Cosmos 1833 Rocket 3.5 22:24:24 38° ESE 22:24:24 38° ESE 22:29:34 10° NE
ARIANE 6 FM1 Upper Stage 3.8 22:26:27 43° NE 22:26:27 43° NE 22:29:26 10° NE
Resurs 1-4 Rocket 3.9 22:24:03 10° NE 22:28:02 21° E 22:29:27 19° ESE
Cosmos 921 Rocket 3.7 22:34:26 52° NE 22:34:26 52° NE 22:37:54 10° NNE
Cosmos 1709 Rocket 4.3 22:27:31 10° NNW 22:33:37 50° W 22:33:49 50° W
Cosmos 1697 Rocket 2.6 22:28:00 10° NW 22:33:16 71° W 22:33:16 71° W
Cosmos 2360 Rocket 4.5 22:30:58 10° NNW 22:35:28 24° NNE 22:39:56 10° ENE
Cosmos 1782 Rocket 4.0 22:38:46 61° NNE 22:38:46 61° NNE 22:42:28 10° NNE
Cosmos 494 Rocket 3.9 22:39:31 85° N 22:39:31 85° N 22:44:36 10° NNE
ATLAS 2AS CENTAUR R/B 2.5 22:35:46 10° NW 22:42:38 71° SW 22:43:40 61° S
Cosmos 2322 Rocket 4.2 22:40:00 10° NNW 22:44:50 28° NNE 22:49:41 10° E
Cosmos 220 Rocket 4.5 22:50:52 56° NE 22:50:52 56° NE 22:54:21 10° NNE
Cosmos 2074 Rocket 3.9 22:44:26 10° NNW 22:50:43 88° W 22:51:48 63° S
Cosmos 1992 Rocket 4.3 22:46:36 10° NNW 22:51:50 64° ENE 22:53:23 43° ESE
Cosmos 2369 3.9 22:47:00 10° NNW 22:52:42 68° NE 22:55:37 29° SE
COBE Rocket 4.0 22:48:26 10° N 22:52:58 65° NW 22:52:58 65° NW
Cosmos 2333 Rocket 4.3 22:48:20 10° NNW 22:53:12 27° NNE 22:58:03 10° E
Meteor 1-11 4.4 22:47:40 10° NNW 22:53:12 56° W 22:53:12 56° W
IRIDIUM 104 4.5 22:54:57 59° WNW 22:54:57 59° WNW 23:00:03 10° N
Cosmos 1680 Rocket 4.3 22:54:53 38° WNW 22:55:40 40° NW 23:00:42 10° NNE
Cosmos 2082 Rocket 3.9 22:55:04 20° SE 22:56:38 22° ESE 23:00:50 10° NE
Nimbus 7 Rocket 4.3 22:58:25 10° NNE 23:04:18 76° WNW 23:05:15 62° SW
CZ-2D R/B 3.3 22:59:35 10° NNE 23:04:39 37° E 23:06:27 29° SE
Cosmos 1953 4.3 23:05:32 20° NW 23:05:32 20° NW 23:07:47 10° NNW
SL-16 R/B 3.5 23:00:09 10° NNW 23:05:31 41° NE 23:10:52 10° ESE
H-2A R/B 2.9 23:01:38 10° N 23:05:28 41° NW 23:05:28 41° NW
SL-16 R/B 3.4 23:00:10 10° SE 23:06:04 48° ENE 23:12:02 10° NNW
Cosmos 1271 Rocket 4.2 23:05:16 10° N 23:08:28 30° ENE 23:08:52 29° E
Cosmos 521 Rocket 4.5 23:07:07 10° NW 23:13:34 63° SW 23:14:50 53° S
Cosmos 468 4.4 23:13:38 73° SSW 23:14:10 89° ESE 23:19:31 10° NNE
Cosmos 1975 Rocket 4.4 23:10:23 10° NNW 23:13:04 29° NW 23:13:04 29° NW
ATLAS CENTAUR R/B 3.6 23:11:30 10° NW 23:14:38 23° N 23:17:52 10° ENE
CZ-4C R/B 3.6 23:15:18 19° SE 23:16:14 20° ESE 23:20:09 10° ENE
Lacrosse 5 4.0 23:18:50 14° SE 23:19:11 14° SE 23:21:51 10° E
SeaSat 1 3.6 23:14:54 10° ESE 23:19:32 43° NE 23:24:12 10° NNW
Cosmos 2084 Rocket 4.3 23:19:50 39° NW 23:20:26 41° NNW 23:24:20 10° NE
Geosat 4.2 23:20:05 10° NE 23:25:04 59° ESE 23:25:50 53° SSE
Cosmos 1375 Rocket 4.5 23:19:40 10° NW 23:26:18 90° SSW 23:32:47 10° SE
Cosmos 2341 Rocket 4.3 23:20:15 10° N 23:26:29 63° ENE 23:30:56 20° SSE
Cosmos 1302 Rocket 4.5 23:21:34 10° NW 23:25:50 44° W 23:25:50 44° W
ADEOS II 3.2 23:22:39 10° NNE 23:27:33 38° E 23:29:51 26° SE
Cosmos 2184 Rocket 4.1 23:21:54 10° NNW 23:28:00 55° W 23:29:03 49° SW
Cosmos 1980 Rocket 2.1 23:26:02 10° NW 23:31:33 59° WSW 23:31:54 58° SW
Cosmos 1818 4.3 23:28:50 10° NW 23:34:13 53° NNE 23:39:36 10° ESE
Cosmos 2218 Rocket 4.5 23:29:23 10° N 23:35:42 60° ENE 23:41:36 11° SSE
Helios 1A Rocket 4.3 23:37:35 26° NW 23:37:35 26° NW 23:39:33 10° NNW
Cosmos 2327 Rocket 4.3 23:31:42 10° NNW 23:37:53 83° W 23:40:19 39° S
Gbstr 26 Del rocket 4.3 23:37:52 41° S 23:38:46 44° SSE 23:44:09 10° E
CZ-2C R/B 2.8 23:40:58 47° W 23:41:02 47° W 23:46:03 10° NNW
IDEFIX/ARIANE 42P 2.5 23:36:22 10° NNE 23:41:39 88° WNW 23:42:56 53° SSW
ALOS 3.5 23:41:29 10° NNE 23:45:43 35° E 23:48:04 21° SE
Cosmos 2098 Rocket 2.9 23:46:28 55° NNE 23:46:28 55° NNE 23:49:19 10° NNE
Nadezhda 1 Rocket 3.9 23:46:12 43° SSW 23:48:23 83° WNW 23:54:41 10° N
Cosmos 1536 Rocket 3.7 23:44:14 10° NNW 23:48:25 54° W 23:48:25 54° W
USA 281 3.3 23:47:53 37° SSW 23:50:17 54° WSW 23:56:44 10° NW
Sich 1 Rocket 3.6 23:50:19 58° S 23:51:13 85° E 23:55:50 10° NNE
